This is the latest recevied weather packets stored in our database for station/object LU5DTF-1. If no packets are shown the sender has not sent any weather packets the latest 10 day(s).
| Time | Temp. | Humidity | Pressure | Rain* | Wind** | Luminosity | Snow |
|---|---|---|---|---|---|---|---|
| 1778096400 | 14.44° C | 92% | 1006.5 hPa | 8.38 mm | - | - | - |
| 1778096100 | 14.44° C | 92% | 1006.5 hPa | 8.13 mm | - | - | - |
| 1778095800 | 14.44° C | 92% | 1006.5 hPa | 8.13 mm | - | - | - |
| 1778095500 | 15° C | 91% | 1006.5 hPa | 7.62 mm | - | - | - |
| 1778095203 | 15° C | 89% | 1006.6 hPa | 4.83 mm | - | - | - |
| 1778094900 | 15° C | 88% | 1006.2 hPa | 3.05 mm | - | - | - |
| 1778094600 | 15.56° C | 88% | 1006.6 hPa | 2.29 mm | - | - | - |
| 1778094300 | 15.56° C | 87% | 1006.9 hPa | 1.78 mm | - | - | - |
| 1778094000 | 15.56° C | 86% | 1007.3 hPa | 0.25 mm | - | - | - |
| 1778093700 | 15.56° C | 86% | 1007.4 hPa | 0 mm | - | - | - |
| 1778093403 | 15.56° C | 87% | 1007.5 hPa | 0 mm | - | - | - |
| 1778093100 | 15.56° C | 87% | 1007.8 hPa | 0 mm | - | - | - |
| 1778092800 | 15.56° C | 88% | 1008.1 hPa | 0 mm | - | - | - |
| 1778092500 | 15.56° C | 88% | 1008.1 hPa | 0 mm | - | - | - |
| 1778092200 | 15.56° C | 88% | 1008.4 hPa | 0 mm | - | - | - |
| 1778091900 | 15.56° C | 88% | 1008.4 hPa | 0 mm | - | - | - |
| 1778091600 | 15.56° C | 87% | 1008.5 hPa | 0.25 mm | - | - | - |
| 1778091301 | 15.56° C | 87% | 1008.9 hPa | 0.25 mm | - | - | - |
| 1778091000 | 15.56° C | 86% | 1008.7 hPa | 0.25 mm | - | - | - |
| 1778090700 | 15.56° C | 85% | 1009.1 hPa | 0.51 mm | - | - | - |
| 1778090400 | 16.11° C | 84% | 1009.4 hPa | 1.52 mm | - | - | - |
| 1778090100 | 16.11° C | 83% | 1009.4 hPa | 1.52 mm | - | - | - |
| 1778089800 | 16.11° C | 83% | 1009.7 hPa | 1.52 mm | - | - | - |
| 1778089500 | 16.11° C | 83% | 1009.4 hPa | 1.52 mm | - | - | - |
| 1778089200 | 16.11° C | 82% | 1009.8 hPa | 1.52 mm | - | - | - |
* Rain latest hour (hover to see other rain measurements)
** Current wind speed in m/s (hover to see current wind gust speed)